weather.gov     
National Weather Service

Regional Weather Roundup
NWS Homepage
This page is being discontinued on March 12, 2014.
The same data is available at this site. Please update your bookmarks.
Thank you, and we apologize for the inconvenience.
Please send an email to SR-SRH.Webmaster@noaa.gov with any concerns.


Current Version
Previous Version:    01  02  03  04  05  06  07  08  09  10  11  12  13  14  15  16  17  18  19  20  21  22  23  24  25  26  27  28  29  30  
   31  32  33  34  35  36  37  38  39  40  41  42  43  44  45  46  47  48  49  50  51  52  53  54  55  56  57  58  59  60  
[Printable]
030
ASCA44 KEWX 170120
RWRMX

LATIN AMERICA AND CARIBBEAN REGIONAL WEATHER ROUNDUP
NATIONAL WEATHER SERVICE AUSTIN/SAN ANTONIO TX
800 PM CDT WED APR 16 2014

NOTE: "FAIR" INDICATED FEW OR NO CLOUDS BELOW 12,000 FEET WITH NO
SIGNIFICANT WEATHER AND/OR OBSTRUCTIONS TO VISIBILITY.

BAJA CALIFORNIA

CITY           SKY/WX    TMP DP  RH WIND       PRES   REMARKS
LORETO         PTSUNNY   81  63  54 S7        29.73R
LA PAZ         MOCLDY    82  34  17 SW10      29.82
MEXICALI       SUNNY     90  30  12 SE6       29.64
S.J. DEL CABO  MOCLDY    77  57  50 SE13      29.81S
TIJUANA        SUNNY     64  50  59 S12       29.84S

NORTHWESTERN MEXICO

CITY           SKY/WX    TMP DP  RH WIND       PRES   REMARKS
CULIACAN       CLOUDY    79  66  65 S6        29.84
DURANGO        CLOUDY    70  25  18 S18       30.03
GUAYMAS          N/A    N/A N/A N/A MISG        N/A
HERMOSILLO     MOSUNNY   88  23   9 S14       29.79
CD. JUAREZ     PTCLDY    84  25  11 W9        29.70
LOS MOCHIS     MOCLDY    77  59  53 SE17      29.81R
OBREGON        CLOUDY    81  57  44 S12       29.76

NORTHEASTERN MEXICO

CITY           SKY/WX    TMP DP  RH WIND       PRES   REMARKS
CHIHUAHUA      CLOUDY    77  30  18 S10       29.84
MATAMOROS      CLOUDY    70  59  68 E9        29.95
MONTERREY      MOCLDY    72  45  37 E9        29.88R
NUEVO LAREDO   CLOUDY    75  50  41 S8        29.88
REYNOSA        MOCLDY    66  50  55 SE9       29.92
SALTILLO       MOCLDY    61  48  63 NE12      29.99R
TORREON        MOCLDY    82  34  17 NE6       28.90F
CD. VICTORIA   MOCLDY    75  46  35 SE6       29.88

WESTERN MEXICO

CITY           SKY/WX    TMP DP  RH WIND       PRES   REMARKS
AGUASCALIENTES MOCLDY    79  27  14 SW10      30.04
COLIMA         PTCLDY    79  52  38 SW9       29.93R
DEL BAJIO      MOCLDY    79  36  21 W16       30.06R
GUADALAJARA    PTCLDY    79  36  21 S21       30.00
MANZANILLO     CLEAR     79  73  83 SW6       29.79R
MAZATLAN       MOCLDY    73  63  68 W10       29.84S
P. VALLARTA    CLOUDY    79  68  69 SW7       29.85R
ZACATECAS      MOCLDY    70  28  21 W29       30.10R

CENTRAL MEXICO

CITY           SKY/WX    TMP DP  RH WIND       PRES   REMARKS
CUERNAVACA     MOCLDY    84  45  24 S15       29.95R
MEXICO CITY    MOCLDY    68  48  49 SW7       30.18R
MORELIA        PTCLDY    75  48  38 S12       30.06
POZA RICA      CLOUDY    68  59  73 E9        29.95S
PUEBLA         CLOUDY    66  46  48 S10       30.18S
QUERETARO      MOCLDY    73  41  31 SW21      30.05S
S. LUIS POTOSI MOCLDY    79  32  18 SW17      29.99R
TAMPICO        MOCLDY    68  57  68 E7        29.93R
TOLUCA         MOCLDY    64  36  34 SW14      30.26R

SOUTHERN MEXICO

CITY           SKY/WX    TMP DP  RH WIND       PRES   REMARKS
ACAPULCO       CLEAR     82  75  78 W8        29.77R
OAXACA         CLOUDY    75  50  41 S6        30.07R
VERACRUZ       PTCLDY    73  61  64 E9        29.90R
ZIHUATANEJO    CLEAR     86  73  66 SW6       29.79R HX  93

YUCATAN PENINSULA

CITY           SKY/WX    TMP DP  RH WIND       PRES   REMARKS
CAMPECHE       MOCLDY    79  73  83 N12G23    29.88R
CANCUN         PTCLDY    79  73  83 SE5       29.95R
CHETUMAL       CLOUDY    82  75  78 E12       29.89R
COZUMEL        PTCLDY    75  72  88 E5        29.95R
MERIDA         CLOUDY    79  68  69 N14       29.92R
TAPACHULA      MOCLDY    84  77  79 CALM      29.80R HX  94
TUX. GUTIERREZ CLEAR     75  61  60 NW17      29.86R
VILLAHERMOSA   CLOUDY    73  66  78 NE6       29.93R

CENTRAL AMERICA

CITY           SKY/WX    TMP DP  RH WIND       PRES   REMARKS
MANAGUA        PTCLDY    88  68  51 E7        29.74R HX  91

CARIBBEAN

CITY           SKY/WX    TMP DP  RH WIND       PRES   REMARKS
ARUBA          PTCLDY    81  73  78 E18       29.86R
CURACAO        PTCLDY    81  73  78 E9        29.89S
KINGSTON       MOCLDY    81  73  78 NE5       29.92R
NASSAU         MOCLDY    79  72  78 E5        30.05R
SAN JUAN       PTCLDY    81  72  74 E6        30.00R
SANTO DOMINGO  PTCLDY    77  70  78 N6        29.94S
ST. CROIX      CLEAR     77  70  78 E6        29.99R
ST. KITTS      PTCLDY    77  72  83 NE10      29.97S
ST. MAARTEN    PTCLDY    79  70  73 E8        30.00R
ST. THOMAS     CLEAR     77  73  88 E7        29.99R

$$





U.S. Dept. of Commerce
NOAA National Weather Service
1325 East West Highway
Silver Spring, MD 20910
E-mail: w-nws.webmaster@noaa.gov
Page last modified: May 16, 2007
NATIONAL WEATHER SERVICE: for Safety, for Work, for Fun - FOR LIFE